Weather Roundup
Issued by NWS Springfield, MO

Home | Current Version | Previous Version | Text Only | Print | Product List | Glossary On
Versions: 1 2 3 4 5 6 7 8 9 10 11 12 13 14 15 16 17 18 19 20 21 22 23 24 25 26 27 28 29 30 31 32 33 34 35 36 37 38 39 40 41 42 43 44 45 46 47 48 49 50
979
NZUS99 KSGF 190507
HRRSGF

HOURLY WEATHER
NATIONAL WEATHER SERVICE SPRINGFIELD MO
1100 PM CST SAT NOV 18 2017

......SGF CWA......

CITY           SKY/WX    TMP DP  RH WIND       PRES   REMARKS
SPRINGFIELD    CLEAR     39  31  72 NW8       30.16R WCI  33
JOPLIN         CLEAR     39  32  76 NW8       30.22R WCI  33
WEST PLAINS    CLEAR     41  30  65 NW13G22   30.11R
ROLLA          CLEAR     38  25  59 NW14      30.09R WCI  30
OSAGE BEACH    CLEAR     42  27  55 VRB7G21   30.14R
BRANSON        CLEAR     43  30  61 NW13G20   30.17R

......SURROUNDING SGF CWA......

CITY           SKY/WX    TMP DP  RH WIND       PRES   REMARKS
CHANUTE        CLEAR     39  29  67 NW7       30.24R WCI  34
PARSONS        CLEAR     35  29  78 CALM      30.25S
COFFEYVILLE    CLEAR     39  30  70 NW6       30.25R WCI  35
EMPORIA        CLEAR     36  26  67 NW3       30.24R
GROVE OK       CLEAR     43  34  70 NW5         N/A
ROGERS AR      CLEAR     40  32  73 NW8       30.21R WCI  34
SILOAM SPRINGS CLEAR     38  32  79 NW6       30.22R WCI  33
HARRISON AR    CLEAR     41  32  70 W8        30.16R
NEAR YELLVILLE CLEAR     46  31  55 NW12G20   30.16R

......KANSAS AND MISSOURI......

CITY           SKY/WX    TMP DP  RH WIND       PRES   REMARKS
KANSAS CTY INT CLEAR     36  27  69 NW7       30.19S WCI  30
DOWNTOWN KC    CLEAR     41  26  55 NW8       30.20R
COLUMBIA       CLEAR     38  27  64 NW14      30.11R WCI  30
SEDALIA        CLEAR     39  26  59 NW17      30.17R WCI  30
ST JOSEPH      CLEAR     34  26  72 NW10      30.21R WCI  26
ST LOUIS       PTCLDY    40  29  64 NW23G31   30.02R WCI  30
SPIRIT OF STL  CLEAR     40  30  67 NW18G25   30.05R WCI  31
KIRKSVILLE     CLEAR     34  25  69 NW17G26   30.10R WCI  23
WICHITA        CLEAR     38  25  59 NW6       30.27R WCI  33
TOPEKA         CLEAR     36  28  73 NW7       30.23R WCI  30
OLATHE         CLEAR     38  26  62 N9        30.20R WCI  31

......TENNESSEE......

CITY           SKY/WX    TMP DP  RH WIND       PRES   REMARKS
MEMPHIS        CLEAR     46  35  65 NW10      30.08R
NASHVILLE      CLOUDY    44  38  79 NW9       29.97R

......ARKANSAS.......

CITY           SKY/WX    TMP DP  RH WIND       PRES   REMARKS
FAYETTEVILLE   CLEAR     43  34  70 NW9       30.21R
FT SMITH       PTCLDY    39  32  76 W9        30.22R WCI  33
LITTLE ROCK    CLEAR     46  32  58 W8        30.18R

......OKLAHOMA.......

CITY           SKY/WX    TMP DP  RH WIND       PRES   REMARKS
TULSA          CLEAR     41  30  65 NW8       30.27R
PONCA CITY     CLEAR     38  25  59 N3        30.28R
MCALESTER      CLEAR     35  32  88 NW3       30.26R
OKLAHOMA CITY  CLEAR     38  27  64 NW6       30.29R WCI  33

......IOWA............

CITY           SKY/WX    TMP DP  RH WIND       PRES   REMARKS
DES MOINES     CLEAR     30  20  66 NW13      30.11R WCI  20
QUAD CITIES    MOCLDY    32  23  69 W14G26    29.98R WCI  22

......ILLINOIS........

CITY           SKY/WX    TMP DP  RH WIND       PRES   REMARKS
QUINCY         CLEAR     34  21  59 NW21G28   30.05R WCI  22
CHICAGO        CLOUDY    38  29  70 NW13      29.82R WCI  30




USA.gov is the U.S. government's official web portal to all federal, state and local government web resources and services.